GW0484 Weather Reports


time (UTC)temp
F
wind
direction
speed
knots
gust
knots
rain 1hr
in
rain 24hr
in
rain mn
in
humidity
%
barometer
mb
20260906232111 64 23 1.7 2.6 0.00 0.01 0.01 76 1011.6
20260906231606 64 317 7.8 7.8 0.00 0.01 0.01 77 1011.5
20260906231101 64 307 5.2 6.1 0.00 0.01 0.01 77 1011.5
20260906230600 64 133 1.7 1.7 0.00 0.01 0.01 78 1011.4
20260906230055 64 304 5.2 6.1 0.00 0.01 0.01 79 1011.4
20260906225548 64 316 5.2 7.8 0.00 0.01 0.01 79 1011.5
20260906225044 65 10 4.3 6.1 0.00 0.01 0.01 78 1011.4
20260906224540 65 125 0.0 0.0 0.00 0.01 0.01 76 1011.6
20260906224037 65 125 0.9 1.7 0.00 0.01 0.01 76 1011.6
20260906223532 65 123 0.0 0.0 0.00 0.01 0.01 77 1011.9
20260906223031 65 131 0.0 0.0 0.00 0.01 0.01 78 1011.7
20260906222525 65 131 0.0 0.0 0.00 0.01 0.01 77 1011.9
20260906222023 65 123 0.0 0.9 0.00 0.01 0.01 77 1012.2
20260906221522 65 46 0.9 4.3 0.00 0.01 0.01 78 1011.7
20260906221018 65 355 2.6 4.3 0.00 0.01 0.01 77 1011.8
20260906220517 65 12 0.9 4.3 0.00 0.01 0.01 77 1011.8
20260906220012 65 28 5.2 6.1 0.00 0.01 0.01 76 1011.7
20260906215506 65 50 2.6 4.3 0.00 0.01 0.01 76 1011.9
20260906215004 66 39 4.3 6.1 0.00 0.01 0.01 75 1011.7
20260906214503 66 19 4.3 5.2 0.00 0.01 0.01 76 1011.6
20260906213957 66 21 1.7 2.6 0.00 0.01 0.01 75 1011.7
20260906213451 66 47 4.3 5.2 0.00 0.01 0.01 74 1011.9
20260906212950 65 104 0.9 0.9 0.00 0.01 0.01 75 1012.0
20260906212444 65 52 4.3 5.2 0.00 0.01 0.01 75 1011.8
20260906211939 65 74 2.6 2.6 0.00 0.01 0.01 74 1011.8
20260906211434 64 124 0.9 0.9 0.00 0.01 0.01 74 1011.8
20260906210929 64 35 5.2 5.2 0.00 0.01 0.01 74 1011.9
20260906210425 64 40 2.6 2.6 0.00 0.01 0.01 75 1011.9
20260906205919 64 29 4.3 5.2 0.00 0.01 0.01 76 1011.6
20260906205415 64 32 4.3 4.3 0.00 0.01 0.01 76 1011.9
20260906204911 64 23 4.3 5.2 0.00 0.01 0.01 75 1011.9
20260906204410 64 23 5.2 6.1 0.00 0.01 0.01 75 1011.9
20260906203909 64 18 4.3 5.2 0.00 0.01 0.01 74 1012.3
20260906203404 64 37 2.6 4.3 0.00 0.01 0.01 74 1012.0
20260906202901 64 74 3.5 5.2 0.00 0.01 0.01 74 1011.9
20260906202356 64 355 4.3 5.2 0.00 0.01 0.01 74 1012.0
20260906201855 64 70 4.3 6.1 0.00 0.01 0.01 75 1012.0
20260906201350 64 16 5.2 7.0 0.00 0.01 0.01 74 1012.0
20260906200845 64 52 4.3 5.2 0.00 0.01 0.01 74 1012.2
20260906200341 63 18 4.3 5.2 0.00 0.01 0.01 75 1012.3
20260906195836 63 23 2.6 2.6 0.00 0.01 0.01 75 1012.3
20260906195333 63 46 5.2 5.2 0.00 0.01 0.01 75 1012.4
20260906194828 63 58 2.6 4.3 0.00 0.01 0.01 75 1012.3
20260906194324 63 26 4.3 4.3 0.00 0.01 0.01 75 1012.4
20260906193819 63 53 3.5 4.3 0.00 0.01 0.01 75 1012.6
20260906193314 63 153 1.7 2.6 0.00 0.01 0.01 75 1012.5
20260906192809 63 12 7.0 7.0 0.00 0.01 0.01 74 1012.2
20260906192306 63 10 5.2 7.0 0.00 0.01 0.01 75 1012.0
20260906191803 64 35 6.1 7.0 0.00 0.01 0.01 74 1012.0
20260906191257 63 80 2.6 4.3 0.00 0.01 0.01 75 1012.5
20260906190752 63 41 7.0 7.8 0.00 0.01 0.01 74 1012.3
20260906190246 63 12 7.8 7.8 0.00 0.01 0.01 75 1012.5
20260906185745 63 25 7.8 8.7 0.00 0.01 0.01 75 1012.5
20260906185244 63 32 3.5 4.3 0.00 0.01 0.01 77 1012.2
20260906184739 63 16 9.6 9.6 0.00 0.01 0.01 77 1012.2
20260906184234 63 50 7.0 7.8 0.00 0.01 0.01 77 1012.7
20260906183730 62 44 10.4 13.0 0.00 0.01 0.01 76 1012.3
20260906183226 62 23 12.2 13.9 0.00 0.01 0.01 77 1012.5
20260906182725 62 27 11.3 13.9 0.00 0.01 0.01 78 1012.6
20260906182222 62 46 11.3 13.0 0.00 0.01 0.01 78 1012.7
20260906181717 61 19 7.8 11.3 0.00 0.01 0.01 80 1012.6
20260906181213 62 20 10.4 13.9 0.00 0.01 0.01 78 1012.8
20260906180708 61 25 10.4 12.2 0.00 0.01 0.01 79 1012.5
20260906180203 61 26 11.3 14.8 0.00 0.01 0.01 81 1013.0
20260906175700 60 29 13.0 15.6 0.00 0.01 0.01 83 1012.5
20260906175155 59 33 11.3 13.0 0.00 0.01 0.01 87 1012.4
20260906174654 58 49 7.8 11.3 0.00 0.01 0.01 92 1012.7
20260906174143 57 46 7.0 7.8 0.00 0.01 0.01 94 1012.9
20260906173639 57 34 9.6 11.3 0.00 0.01 0.01 95 1013.2
20260906173134 57 126 0.9 0.9 0.07 0.01 0.01 94 1013.9
20260906172634 57 147 0.0 0.0 0.07 0.01 0.01 94 1014.1
20260906172130 57 211 2.6 2.6 0.00 0.00 0.00 94 1014.3
20260906171629 57 305 4.3 5.2 0.00 0.00 0.00 93 1014.2
20260906171125 57 298 5.2 6.1 0.00 0.00 0.00 92 1014.3
20260906170621 57 319 6.1 7.0 0.00 0.00 0.00 92 1014.3
20260906170120 57 247 4.3 5.2 0.00 0.00 0.00 92 1014.3
20260906165616 57 302 2.6 2.6 0.00 0.00 0.00 92 1014.5
20260906165112 57 252 2.6 2.6 0.00 0.00 0.00 92 1014.5
20260906164610 57 297 4.3 5.2 0.00 0.00 0.00 92 1014.6
20260906164106 57 127 2.6 4.3 0.00 0.00 0.00 92 1014.5
20260906163602 57 133 1.7 1.7 0.00 0.00 0.00 92 1014.5
20260906163057 57 318 3.5 4.3 0.00 0.00 0.00 92 1014.5
20260906162554 57 127 0.0 0.9 0.00 0.00 0.00 92 1014.3
20260906162049 56 133 0.0 0.0 0.00 0.00 0.00 92 1014.3
20260906161544 56 126 0.0 0.0 0.00 0.00 0.00 93 1014.5
20260906161043 56 125 0.9 0.9 0.00 0.00 0.00 93 1014.1
20260906160542 56 133 0.0 0.9 0.00 0.00 0.00 93 1014.1
20260906160041 55 124 0.0 0.0 0.00 0.00 0.00 93 1014.3
20260906155538 55 131 0.0 0.9 0.00 0.00 0.00 93 1014.2
20260906155034 55 79 1.7 2.6 0.00 0.00 0.00 94 1014.5
20260906154529 55 133 1.7 2.6 0.00 0.00 0.00 94 1014.5
20260906154028 55 130 1.7 2.6 0.00 0.00 0.00 94 1014.6
20260906153527 55 135 1.7 1.7 0.00 0.00 0.00 93 1014.6
20260906153017 54 151 1.7 1.7 0.00 0.00 0.00 93 1014.7
20260906152511 55 314 3.5 5.2 0.00 0.00 0.00 93 1014.7
20260906152010 55 324 7.8 9.6 0.00 0.00 0.00 92 1014.9
20260906151506 55 141 5.2 7.0 0.00 0.00 0.00 91 1015.2
20260906151001 55 186 6.1 12.2 0.00 0.00 0.00 90 1015.0
20260906150456 56 181 6.1 8.7 0.00 0.00 0.00 90 1015.2
20260906145956 56 304 6.1 7.8 0.00 0.00 0.00 90 1015.0
20260906145455 56 250 4.3 6.1 0.00 0.00 0.00 90 1015.3
20260906144949 57 132 0.9 0.9 0.00 0.00 0.00 89 1014.7
20260906144444 57 6 4.3 9.6 0.00 0.00 0.00 89 1015.2
20260906143940 58 289 7.8 8.7 0.00 0.00 0.00 89 1015.5
20260906143435 59 240 7.8 8.7 0.00 0.00 0.00 89 1015.4
20260906142931 59 265 3.5 5.2 0.00 0.00 0.00 90 1015.3
20260906142430 59 269 4.3 4.3 0.00 0.00 0.00 89 1015.0
20260906141926 59 166 0.9 0.9 0.00 0.00 0.00 89 1014.9
20260906141420 59 127 0.0 0.0 0.00 0.00 0.00 90 1014.7
20260906140914 59 66 1.7 1.7 0.00 0.00 0.00 90 1014.5
20260906140408 59 102 0.9 0.9 0.00 0.00 0.00 90 1014.6
20260906135906 59 129 0.0 0.0 0.00 0.00 0.00 90 1014.9
20260906135400 59 126 0.0 0.9 0.00 0.00 0.00 90 1014.9
20260906134856 59 83 1.7 1.7 0.00 0.00 0.00 90 1015.0
20260906134351 59 118 0.9 0.9 0.00 0.00 0.00 90 1014.6
20260906133847 58 97 1.7 2.6 0.00 0.00 0.00 90 1014.8
20260906133342 58 44 4.3 4.3 0.00 0.00 0.00 90 1014.5
20260906132838 58 31 2.6 2.6 0.00 0.00 0.00 90 1014.3
20260906132332 58 126 0.0 0.9 0.00 0.00 0.00 91 1014.3
20260906131828 58 117 3.5 6.1 0.00 0.00 0.00 91 1014.5
20260906131323 57 310 6.1 7.0 0.00 0.00 0.00 91 1014.6
20260906130819 58 270 5.2 6.1 0.00 0.00 0.00 91 1014.8
20260906130319 57 127 0.0 0.0 0.00 0.00 0.00 91 1014.5
20260906125818 57 35 2.6 2.6 0.00 0.00 0.00 91 1014.3
20260906125315 57 47 5.2 6.1 0.00 0.00 0.00 91 1014.6
20260906124810 57 57 3.5 4.3 0.00 0.00 0.00 91 1014.6
20260906124306 57 38 3.5 4.3 0.00 0.00 0.00 91 1014.8
20260906123805 57 17 6.1 7.8 0.00 0.00 0.00 91 1014.6
20260906123300 57 1 3.5 5.2 0.00 0.00 0.00 91 1014.7
20260906122800 57 17 4.3 6.1 0.00 0.00 0.00 91 1014.6
20260906122255 57 3 4.3 7.0 0.00 0.00 0.00 91 1014.7
20260906121752 57 6 4.3 6.1 0.00 0.00 0.00 91 1014.2
20260906121248 57 342 4.3 6.1 0.00 0.00 0.00 91 1014.3
20260906120743 57 24 3.5 5.2 0.00 0.00 0.00 92 1014.3
20260906120240 57 12 3.5 5.2 0.00 0.00 0.00 92 1014.2
20260906115735 57 134 0.9 1.7 0.00 0.00 0.00 92 1014.5
20260906115230 57 145 0.9 1.7 0.00 0.00 0.00 92 1014.5
20260906114729 57 127 0.9 1.7 0.00 0.00 0.00 92 1014.5
20260906114224 57 142 0.9 1.7 0.00 0.00 0.00 91 1014.3
20260906113720 57 336 3.5 5.2 0.00 0.00 0.00 91 1014.8
20260906113219 57 88 3.5 4.3 0.00 0.00 0.00 91 1014.7
20260906112718 57 11 1.7 2.6 0.00 0.00 0.00 90 1014.8
20260906112216 57 97 3.5 5.2 0.00 0.00 0.00 90 1014.6
20260906111715 57 51 4.3 5.2 0.00 0.00 0.00 90 1014.7
20260906111209 57 103 2.6 2.6 0.00 0.00 0.00 89 1014.7
20260906110704 57 4 4.3 7.0 0.00 0.00 0.00 90 1014.8
20260906110200 57 17 3.5 4.3 0.00 0.00 0.00 89 1014.6
20260906105653 57 45 3.5 6.1 0.00 0.00 0.00 89 1014.6
20260906105150 57 35 6.1 7.0 0.00 0.00 0.00 89 1014.7
20260906104649 57 0 3.5 5.2 0.00 0.00 0.00 89 1014.8
20260906104143 57 11 2.6 4.3 0.00 0.00 0.00 89 1014.7
20260906103641 57 38 5.2 7.0 0.00 0.00 0.00 89 1014.8
20260906103137 57 27 6.1 7.0 0.00 0.00 0.00 89 1014.9
20260906102631 57 352 7.8 9.6 0.00 0.00 0.00 89 1014.9
20260906102125 57 93 6.1 7.0 0.00 0.00 0.00 89 1014.9
20260906101620 57 50 7.0 7.8 0.00 0.00 0.00 89 1014.9
20260906101115 57 359 7.0 7.8 0.00 0.00 0.00 89 1014.9
20260906100611 57 20 2.6 4.3 0.00 0.00 0.00 89 1015.0
20260906100110 57 21 3.5 6.1 0.00 0.00 0.00 89 1015.1
20260906095610 57 183 3.5 4.3 0.00 0.00 0.00 88 1014.9
20260906095106 57 154 2.6 5.2 0.00 0.00 0.00 88 1014.9
20260906094604 57 121 2.6 5.2 0.00 0.00 0.00 88 1014.9
20260906094101 57 105 1.7 2.6 0.00 0.00 0.00 88 1014.8
20260906093556 58 18 3.5 5.2 0.00 0.00 0.00 88 1014.9
20260906093051 58 265 4.3 6.1 0.00 0.00 0.00 88 1014.6
20260906092546 59 22 4.3 7.8 0.00 0.00 0.00 87 1014.8
20260906092041 59 16 7.0 9.6 0.00 0.00 0.00 86 1014.8
20260906091537 59 1 7.8 13.0 0.00 0.00 0.00 86 1014.8
20260906091033 59 12 4.3 6.1 0.00 0.00 0.00 86 1015.0
20260906090528 58 258 6.1 7.8 0.00 0.00 0.00 87 1015.0
20260906090023 57 320 6.1 7.8 0.00 0.00 0.00 89 1014.9
20260906085522 58 126 0.9 0.9 0.00 0.00 0.00 90 1015.1
20260906085021 58 136 0.9 1.7 0.00 0.00 0.00 89 1015.2
20260906084516 58 109 0.9 0.9 0.00 0.00 0.00 89 1015.1
20260906084015 58 196 0.9 1.7 0.00 0.00 0.00 88 1015.4
20260906083511 58 104 1.7 4.3 0.00 0.00 0.00 87 1015.7
20260906083010 58 30 5.2 7.8 0.00 0.00 0.00 87 1015.5
20260906082505 58 13 7.8 12.2 0.00 0.00 0.00 87 1015.2
20260906082001 58 6 6.1 7.8 0.00 0.00 0.00 87 1015.8
20260906081456 58 147 3.5 5.2 0.00 0.00 0.00 87 1015.9
20260906080952 58 21 4.3 6.1 0.00 0.00 0.00 87 1015.5
20260906080448 58 139 0.9 0.9 0.00 0.00 0.00 87 1015.5
20260906075943 58 144 2.6 4.3 0.00 0.00 0.00 88 1015.5
20260906075438 57 345 0.9 1.7 0.00 0.00 0.00 88 1015.5
20260906074933 57 56 5.2 7.0 0.00 0.00 0.00 89 1015.5
20260906074427 57 85 2.6 2.6 0.00 0.00 0.00 89 1015.7
20260906073926 57 347 1.7 4.3 0.00 0.00 0.00 89 1015.7
20260906073421 57 276 3.5 4.3 0.00 0.00 0.00 90 1015.5
20260906072917 57 267 2.6 2.6 0.00 0.00 0.00 90 1015.7
20260906072412 56 80 2.6 2.6 0.00 0.00 0.00 91 1015.1
20260906071908 56 113 0.0 0.0 0.00 0.00 0.00 91 1015.7
20260906071404 56 129 0.0 0.0 0.00 0.00 0.00 91 1015.9
20260906070900 56 127 0.0 0.0 0.00 0.00 0.00 90 1015.7
20260906070355 56 117 0.0 0.9 0.00 0.00 0.00 90 1016.2
20260906065851 57 358 2.6 2.6 0.00 0.00 0.00 89 1015.7
20260906065345 57 13 2.6 2.6 0.00 0.00 0.00 89 1015.7
20260906064840 57 15 4.3 6.1 0.00 0.00 0.00 89 1015.8
20260906064337 57 127 0.0 0.9 0.00 0.00 0.00 89 1016.4
20260906063837 57 135 1.7 2.6 0.00 0.00 0.00 88 1016.3
20260906063332 57 284 3.5 4.3 0.00 0.00 0.00 88 1016.5
20260906062827 58 230 4.3 5.2 0.00 0.00 0.00 89 1016.9
20260906062326 58 291 5.2 6.1 0.00 0.00 0.00 88 1016.6
20260906061822 57 102 0.9 0.9 0.00 0.00 0.00 89 1016.5
20260906061318 57 4 2.6 6.1 0.00 0.00 0.00 89 1016.3
20260906060813 57 20 0.9 1.7 0.00 0.00 0.00 89 1016.0
20260906060311 57 125 0.9 1.7 0.00 0.00 0.00 89 1016.1
20260906055806 57 354 0.9 0.9 0.00 0.11 0.11 90 1016.3
20260906055301 57 95 0.9 0.9 0.00 0.11 0.11 89 1016.2
20260906054756 57 134 0.0 0.9 0.00 0.11 0.11 89 1016.2
20260906054252 57 279 0.9 1.7 0.00 0.11 0.11 88 1016.1
20260906053748 57 21 3.5 7.8 0.00 0.11 0.11 87 1016.2
20260906053244 57 357 8.7 11.3 0.00 0.11 0.11 87 1015.9
20260906052738 57 28 6.1 8.7 0.00 0.11 0.11 87 1015.7
20260906052235 57 2 8.7 12.2 0.00 0.11 0.11 87 1015.8
20260906051732 57 355 4.3 6.1 0.00 0.11 0.11 87 1015.5
20260906051231 57 10 8.7 9.6 0.00 0.11 0.11 87 1015.7
20260906050727 57 22 9.6 12.2 0.00 0.11 0.11 87 1015.7
20260906050222 57 28 5.2 7.0 0.00 0.11 0.11 87 1015.8
20260906045720 57 352 7.0 9.6 0.00 0.11 0.11 88 1015.7
20260906045216 57 51 4.3 6.1 0.17 0.11 0.11 87 1015.7
20260906044711 58 14 6.1 8.7 0.17 0.11 0.11 86 1015.7
20260906044206 58 67 8.7 12.2 0.05 0.09 0.09 83 1015.8
20260906043702 58 358 6.1 8.7 0.00 0.08 0.08 85 1015.9
20260906043158 58 138 0.0 0.0 0.00 0.08 0.08 85 1016.3
20260906042657 58 163 2.6 4.3 0.00 0.08 0.08 84 1016.0
20260906042151 58 6 7.0 12.2 0.00 0.08 0.08 85 1015.3
20260906041647 58 346 4.3 7.8 0.00 0.08 0.08 84 1015.1
20260906041142 58 333 9.6 11.3 0.00 0.08 0.08 83 1015.0
20260906040637 58 354 7.8 13.9 0.00 0.08 0.08 83 1014.7
20260906040133 58 17 6.1 11.3 0.00 0.08 0.08 84 1014.9
20260906035628 58 354 6.1 9.6 0.00 0.08 0.08 85 1014.8
20260906035124 58 69 7.0 11.3 0.00 0.08 0.08 84 1014.8
20260906034623 58 144 4.3 6.1 0.00 0.08 0.08 85 1015.1
20260906034118 58 348 5.2 7.8 0.00 0.08 0.08 84 1015.2
20260906033614 58 12 4.3 7.8 0.00 0.08 0.08 85 1015.2
20260906033108 57 184 6.1 9.6 0.00 0.08 0.08 85 1015.1
20260906032605 58 135 4.3 9.6 0.00 0.08 0.08 85 1015.2
20260906032100 58 355 2.6 7.8 0.31 0.08 0.08 85 1015.8
20260906031555 60 317 2.6 4.3 0.31 0.08 0.08 82 1015.4
20260906031051 62 40 3.5 5.2 0.00 0.03 0.03 69 1015.5
20260906030550 62 132 0.9 1.7 0.00 0.03 0.03 68 1016.5
20260906030049 62 14 4.3 6.1 0.00 0.03 0.03 68 1015.5
20260906025544 62 11 8.7 11.3 0.00 0.03 0.03 68 1014.6
20260906025042 62 11 11.3 14.8 0.00 0.03 0.03 68 1014.1
20260906024537 62 12 13.0 19.1 0.00 0.03 0.03 68 1014.0
20260906024032 62 16 16.5 19.1 0.00 0.03 0.03 68 1013.7
20260906023528 62 8 13.0 17.4 0.00 0.03 0.03 68 1013.9
20260906023022 62 6 11.3 12.2 0.00 0.03 0.03 68 1014.0
20260906022518 62 18 14.8 17.4 0.00 0.03 0.03 67 1013.7
20260906022013 63 25 15.6 17.4 0.00 0.03 0.03 67 1013.7
20260906021509 63 12 11.3 12.2 0.00 0.03 0.03 66 1013.8
20260906021003 63 14 13.0 15.6 0.00 0.03 0.03 66 1013.8
20260906020502 63 4 13.0 15.6 0.00 0.03 0.03 66 1013.7
20260906020001 64 21 13.0 14.8 0.00 0.03 0.03 65 1013.7
20260906015501 64 11 8.7 9.6 0.00 0.03 0.03 64 1013.8
20260906015001 65 12 12.2 13.0 0.00 0.03 0.03 63 1013.6
20260906014455 65 19 11.3 12.2 0.00 0.03 0.03 63 1013.6
20260906013951 65 357 9.6 11.3 0.00 0.03 0.03 62 1013.8
20260906013447 66 11 9.6 11.3 0.00 0.03 0.03 61 1013.5
20260906012942 66 358 4.3 7.0 0.00 0.03 0.03 60 1013.7
20260906012437 66 24 7.0 7.8 0.00 0.03 0.03 59 1013.6
20260906011936 67 4 7.0 8.7 0.00 0.03 0.03 59 1013.8
20260906011432 67 14 6.1 7.8 0.00 0.03 0.03 58 1013.7
20260906010927 67 25 8.7 9.6 0.00 0.03 0.03 58 1013.7
20260906010422 67 2 9.6 11.3 0.00 0.03 0.03 58 1013.9
20260906005918 68 40 10.4 12.2 0.00 0.03 0.03 56 1013.9
20260906005418 68 8 12.2 13.9 0.00 0.03 0.03 56 1013.7
20260906004916 68 25 10.4 12.2 0.00 0.03 0.03 55 1013.8
20260906004411 69 5 9.6 11.3 0.00 0.03 0.03 55 1013.5
20260906003907 69 2 11.3 13.0 0.00 0.03 0.03 54 1013.8
20260906003402 69 33 7.8 9.6 0.00 0.03 0.03 54 1013.6
20260906002857 70 3 8.7 9.6 0.00 0.03 0.03 54 1013.6
20260906002356 71 4 8.7 9.6 0.00 0.03 0.03 52 1013.9
20260906001852 71 351 11.3 13.0 0.00 0.03 0.03 50 1013.8
20260906001348 71 45 8.7 12.2 0.00 0.03 0.03 50 1013.8
20260906000842 72 24 7.0 7.8 0.00 0.03 0.03 46 1013.9
20260906000337 72 33 8.7 11.3 0.00 0.03 0.03 47 1013.8
20260905235837 72 358 11.3 13.0 0.00 0.03 0.03 47 1013.7
20260905235331 72 26 7.0 7.8 0.00 0.03 0.03 47 1013.6
20260905234827 73 37 3.5 5.2 0.00 0.03 0.03 46 1013.8
20260905234322 72 25 6.1 7.0 0.00 0.03 0.03 46 1014.0
20260905233817 72 46 4.3 5.2 0.00 0.03 0.03 46 1013.9
20260905233312 73 41 9.6 11.3 0.00 0.03 0.03 46 1014.1
20260905232811 73 41 11.3 12.2 0.00 0.03 0.03 47 1014.2